Weather History for New Orleans NAS, LA

Change the Weather History Date:

Monday, May 12, 2014

  Actual Average Record
Temperature  
Mean Temperature 81 °F -  
Max Temperature 88 °F 82 °F 90 °F (2000)
Min Temperature 75 °F 65 °F 55 °F (2006)
Cooling Degree Days 16    
Growing Degree Days 31 (Base 50)    
Moisture  
Dew Point 70 °F    
Average Humidity 74    
Maximum Humidity 84    
Minimum Humidity 53    
Precipitation  
Precipitation 0.00 in - - ()
Sea Level Pressure  
Sea Level Pressure 30.02 in    
Wind  
Wind Speed 11 mph (SE)    
Max Wind Speed 17 mph    
Max Gust Speed 25 mph    
Visibility 8 miles    
Events      
Averages and records for this station are not official NWS values.
T = Trace of Precipitation, MM = Missing Value Source: NWS Daily Summary

Daily Weather History Graph

Daily Weather History Graph

Search for Another Location

Airport:

Trip Planner

Search our weather history database for the weather conditions in past years. The results will help you decide how hot, cold, wet, or windy it might be!

Date:

Astronomy

May. 12, 2014 Rise Set
Actual Time 6:08 AM CDT 7:44 PM CDT
Civil Twilight 5:43 AM CDT 8:10 PM CDT
Nautical Twilight 5:11 AM CDT 8:41 PM CDT
Astronomical Twilight 4:39 AM CDT 9:14 PM CDT
Moon 5:51 PM CDT (5/12) 4:36 AM CDT (5/12)
Length of Visible Light 14h 27m
Length of Day
13h 35m
Waxing Gibbous, 95% of the Moon is Illuminated
May 12
Waxing Gibbous
May 14
Full
May 21
Last Quarter
May 28
New
Jun 5
First Quarter

Hourly Weather History & Observations

Time (CDT) Temp. Heat Index Dew Point Humidity Pressure Visibility Wind Dir Wind Speed Gust Speed Precip Events Conditions
12:55 AM 77.0 °F - 72.0 °F 84% 29.99 in 7.0 mi SSE 10.4 mph - N/A   Overcast
1:39 AM 77.0 °F - 71.6 °F 83% 29.98 in 7.0 mi SSE 10.4 mph - N/A   Overcast
1:55 AM 77.0 °F - 72.0 °F 84% 29.98 in 8.0 mi SSE 10.4 mph - N/A   Mostly Cloudy
2:12 AM 77.0 °F - 71.6 °F 83% 29.97 in 8.0 mi SE 12.7 mph 20.7 mph N/A   Scattered Clouds
2:36 AM 77.0 °F - 71.6 °F 83% 29.97 in 7.0 mi SSE 9.2 mph - N/A   Mostly Cloudy
2:55 AM 77.0 °F - 72.0 °F 84% 29.97 in 7.0 mi SSE 10.4 mph - N/A   Overcast
3:55 AM 77.0 °F - 72.0 °F 84% 29.97 in 6.0 mi SSE 10.4 mph - N/A   Haze
4:55 AM 77.0 °F - 72.0 °F 84% 29.98 in 8.0 mi SSE 9.2 mph - N/A   Overcast
5:55 AM 77.0 °F - 72.0 °F 84% 29.99 in 8.0 mi SE 6.9 mph - N/A   Overcast
6:11 AM 77.0 °F - 71.6 °F 83% 30.00 in 5.0 mi SE 6.9 mph - N/A   Overcast
6:55 AM 77.0 °F - 72.0 °F 84% 30.01 in 2.5 mi SE 6.9 mph - N/A   Mostly Cloudy
7:55 AM 78.1 °F - 72.0 °F 81% 30.04 in 6.0 mi SE 10.4 mph - N/A   Haze
8:55 AM 80.1 °F 83.8 °F 72.0 °F 76% 30.06 in 6.0 mi SE 11.5 mph - N/A   Haze
9:04 AM 80.6 °F 84.6 °F 71.6 °F 74% 30.06 in 7.0 mi SE 13.8 mph - N/A   Mostly Cloudy
9:55 AM 82.9 °F 87.0 °F 70.0 °F 65% 30.07 in 7.0 mi SE 13.8 mph - N/A   Mostly Cloudy
10:55 AM 84.0 °F 88.4 °F 70.0 °F 63% 30.08 in 8.0 mi SSE 17.3 mph 24.2 mph N/A   Mostly Cloudy
11:55 AM 84.0 °F 87.8 °F 69.1 °F 61% 30.08 in 10.0 mi SE 17.3 mph 23.0 mph N/A   Mostly Cloudy
12:55 PM 86.0 °F 89.4 °F 68.0 °F 55% 30.08 in 8.0 mi SSE 13.8 mph 23.0 mph N/A   Mostly Cloudy
1:55 PM 87.1 °F 91.3 °F 69.1 °F 55% 30.07 in 10.0 mi SE 13.8 mph 20.7 mph N/A   Mostly Cloudy
2:55 PM 84.9 °F 88.2 °F 68.0 °F 57% 30.06 in 10.0 mi SE 16.1 mph 25.3 mph N/A   Mostly Cloudy
3:55 PM 86.0 °F 88.8 °F 66.9 °F 53% 30.04 in 10.0 mi SSE 16.1 mph 23.0 mph N/A   Mostly Cloudy
4:55 PM 84.9 °F 87.6 °F 66.9 °F 55% 30.02 in 10.0 mi SSE 16.1 mph - N/A   Mostly Cloudy
5:55 PM 82.9 °F 85.0 °F 66.0 °F 56% 30.01 in 10.0 mi SE 13.8 mph 19.6 mph N/A   Mostly Cloudy
6:55 PM 81.0 °F 84.4 °F 70.0 °F 69% 30.01 in 10.0 mi ESE 11.5 mph - N/A   Mostly Cloudy
7:55 PM 78.1 °F - 71.1 °F 79% 30.01 in 10.0 mi SE 8.1 mph - N/A   Mostly Cloudy
8:55 PM 78.1 °F - 71.1 °F 79% 30.01 in 10.0 mi SE 10.4 mph - N/A   Mostly Cloudy
9:55 PM 77.0 °F - 69.1 °F 76% 30.02 in 10.0 mi SE 10.4 mph - N/A   Mostly Cloudy
10:55 PM 75.9 °F - 70.0 °F 82% 30.01 in 10.0 mi SE 11.5 mph - N/A   Scattered Clouds
11:55 PM 75.9 °F - 70.0 °F 82% 30.01 in 10.0 mi SE 11.5 mph - N/A   Partly Cloudy